FDX122 OPLA-OPKC

Flight info

Callsign FDX122
Flight time 1h 23m
Altitude 32000
Route MIMAL G214 RK J112 NH
Aircraft B738/M-SDE2E3FGHIRWXY/LB1

Departure

Time 2026-04-30 03:39
Airport Allama Iqbal International Airport (OPLA)

Arrival

Time 2026-04-30 05:02
Airport Jinnah International Airport (OPKC)
Time Latitude Longitude Altitude Speed Heading
2026-04-30 03:15 31.52883 74.40100 720 ft 0 kts 270°
2026-04-30 03:33 31.52882 74.40114 721 ft 2 kts 282°
2026-04-30 03:33 31.52879 74.40128 721 ft 2 kts 297°
2026-04-30 03:34 31.52872 74.40141 718 ft 2 kts 313°
2026-04-30 03:34 31.52863 74.40151 719 ft 2 kts 329°
2026-04-30 03:34 31.52851 74.40157 722 ft 2 kts 345°
2026-04-30 03:34 31.52846 74.40159 720 ft 0 kts 352°
2026-04-30 03:36 31.52876 74.40159 719 ft 7 kts
2026-04-30 03:36 31.52932 74.40167 719 ft 10 kts 20°
2026-04-30 03:36 31.52982 74.40245 718 ft 13 kts 54°
2026-04-30 03:37 31.53080 74.40274 718 ft 18 kts
2026-04-30 03:37 31.53208 74.40275 717 ft 19 kts
2026-04-30 03:37 31.53333 74.40261 717 ft 14 kts 325°
2026-04-30 03:37 31.53381 74.40263 721 ft 5 kts 75°
2026-04-30 03:38 31.53355 74.40280 720 ft 7 kts 182°
2026-04-30 03:38 31.53096 74.40275 718 ft 77 kts 181°
2026-04-30 03:38 31.52301 74.40260 717 ft 149 kts 181°
2026-04-30 03:38 31.51092 74.40253 1056 ft 183 kts 179°
2026-04-30 03:39 31.49822 74.40239 1968 ft 187 kts 181°
2026-04-30 03:39 31.48530 74.40172 2798 ft 195 kts 192°
2026-04-30 03:39 31.47330 74.39300 3062 ft 219 kts 236°
2026-04-30 03:39 31.46736 74.37607 3313 ft 238 kts 254°
2026-04-30 03:40 31.46253 74.35663 3584 ft 259 kts 254°
2026-04-30 03:40 31.45726 74.33588 4122 ft 271 kts 253°
2026-04-30 03:40 31.45178 74.31498 5080 ft 267 kts 253°
2026-04-30 03:40 31.44614 74.29406 5882 ft 272 kts 253°
2026-04-30 03:41 31.44028 74.27273 6606 ft 277 kts 252°
2026-04-30 03:41 31.43427 74.25118 7436 ft 278 kts 252°
2026-04-30 03:41 31.42820 74.22962 8235 ft 280 kts 252°
2026-04-30 03:41 31.42203 74.20786 9024 ft 283 kts 252°
2026-04-30 03:42 31.41580 74.18599 9837 ft 284 kts 252°
2026-04-30 03:42 31.40938 74.16351 10286 ft 300 kts 252°
2026-04-30 03:42 31.40248 74.13937 10467 ft 325 kts 252°
2026-04-30 03:42 31.39511 74.11365 10860 ft 338 kts 252°
2026-04-30 03:43 31.38763 74.08767 11490 ft 343 kts 252°
2026-04-30 03:43 31.38003 74.06120 12225 ft 345 kts 252°
2026-04-30 03:43 31.37234 74.03446 12946 ft 347 kts 252°
2026-04-30 03:43 31.36458 74.00747 13618 ft 351 kts 252°
2026-04-30 03:44 31.35673 73.98027 14229 ft 354 kts 252°
2026-04-30 03:44 31.34750 73.95329 14829 ft 359 kts 240°
2026-04-30 03:44 31.33233 73.93002 15486 ft 362 kts 231°
2026-04-30 03:44 31.31568 73.90768 16126 ft 365 kts 230°
2026-04-30 03:45 31.29867 73.88534 16738 ft 368 kts 230°
2026-04-30 03:45 31.28154 73.86291 17355 ft 371 kts 230°
2026-04-30 03:45 31.26460 73.84061 17978 ft 373 kts 231°
2026-04-30 03:45 31.24732 73.81777 18508 ft 375 kts 231°
2026-04-30 03:46 31.23000 73.79476 19018 ft 379 kts 231°
2026-04-30 03:46 31.21257 73.77155 19534 ft 381 kts 231°
2026-04-30 03:46 31.19502 73.74814 20039 ft 385 kts 231°
2026-04-30 03:46 31.17733 73.72453 20540 ft 388 kts 231°
2026-04-30 03:47 31.15952 73.70076 21036 ft 390 kts 231°
2026-04-30 03:47 31.14156 73.67679 21521 ft 393 kts 231°
2026-04-30 03:47 31.12346 73.65267 21997 ft 396 kts 231°
2026-04-30 03:47 31.10524 73.62837 22459 ft 399 kts 231°
2026-04-30 03:48 31.08688 73.60392 22921 ft 402 kts 231°
2026-04-30 03:48 31.06837 73.57928 23379 ft 405 kts 231°
2026-04-30 03:48 31.04979 73.55457 23769 ft 406 kts 231°
2026-04-30 03:48 31.03111 73.52974 24171 ft 408 kts 231°
2026-04-30 03:49 31.01258 73.50513 24563 ft 410 kts 231°
2026-04-30 03:49 30.99372 73.48010 24942 ft 411 kts 231°
2026-04-30 03:49 30.97480 73.45500 25298 ft 414 kts 232°
2026-04-30 03:49 30.95575 73.42974 25654 ft 415 kts 232°
2026-04-30 03:50 30.93662 73.40439 26001 ft 418 kts 232°
2026-04-30 03:50 30.91736 73.37888 26334 ft 420 kts 232°
2026-04-30 03:50 30.89804 73.35332 26654 ft 422 kts 232°
2026-04-30 03:50 30.87856 73.32756 26973 ft 424 kts 232°
2026-04-30 03:51 30.85907 73.30180 27319 ft 425 kts 232°
2026-04-30 03:51 30.83951 73.27599 27758 ft 423 kts 232°
2026-04-30 03:51 30.82007 73.25035 28221 ft 421 kts 233°
2026-04-30 03:51 30.80071 73.22484 28649 ft 421 kts 233°
2026-04-30 03:52 30.78135 73.19933 29035 ft 421 kts 233°
2026-04-30 03:52 30.76199 73.17384 29436 ft 420 kts 233°
2026-04-30 03:52 30.74291 73.14872 29848 ft 419 kts 234°
2026-04-30 03:52 30.72364 73.12338 30169 ft 419 kts 234°
2026-04-30 03:53 30.70435 73.09802 30463 ft 419 kts 235°
2026-04-30 03:53 30.68506 73.07267 30764 ft 418 kts 235°
2026-04-30 03:53 30.66576 73.04733 31095 ft 417 kts 236°
2026-04-30 03:53 30.64648 73.02205 31402 ft 417 kts 236°
2026-04-30 03:54 30.62723 72.99681 31696 ft 417 kts 237°
2026-04-30 03:54 30.60795 72.97152 31706 ft 421 kts 237°
2026-04-30 03:54 30.56905 72.92057 31712 ft 420 kts 237°
2026-04-30 03:55 30.53080 72.87067 31712 ft 415 kts 237°
2026-04-30 03:55 30.49245 72.82057 31723 ft 415 kts 237°
2026-04-30 03:56 30.45399 72.77039 31717 ft 416 kts 237°
2026-04-30 03:56 30.41534 72.72005 31719 ft 418 kts 237°
2026-04-30 03:57 30.37691 72.67008 31713 ft 419 kts 237°
2026-04-30 03:57 30.33814 72.61973 31717 ft 419 kts 237°
2026-04-30 03:58 30.29932 72.56937 31715 ft 419 kts 237°
2026-04-30 03:58 30.26048 72.51905 31715 ft 419 kts 237°
2026-04-30 03:59 30.22165 72.46880 31710 ft 419 kts 237°
2026-04-30 03:59 30.17941 72.42166 31721 ft 431 kts 226°
2026-04-30 04:00 30.13008 72.38163 31711 ft 434 kts 224°
2026-04-30 04:00 30.08060 72.34199 31705 ft 432 kts 225°
2026-04-30 04:01 30.03193 72.30204 31708 ft 433 kts 225°
2026-04-30 04:01 29.98245 72.26100 31716 ft 442 kts 225°
2026-04-30 04:02 29.93203 72.21930 31715 ft 450 kts 225°
2026-04-30 04:02 29.88951 72.18423 31707 ft 456 kts 225°
2026-04-30 04:03 29.84280 72.13605 31713 ft 445 kts 237°
2026-04-30 04:03 29.80226 72.08162 31705 ft 449 kts 238°
2026-04-30 04:04 29.76173 72.02697 31695 ft 454 kts 237°
2026-04-30 04:04 29.71994 71.97194 31696 ft 459 kts 237°
2026-04-30 04:05 29.67749 71.91675 31692 ft 462 kts 237°
2026-04-30 04:05 29.63482 71.86145 31690 ft 463 kts 237°
2026-04-30 04:06 29.59214 71.80617 31688 ft 464 kts 237°
2026-04-30 04:06 29.54909 71.75045 31682 ft 465 kts 237°
2026-04-30 04:07 29.50603 71.69478 31679 ft 465 kts 237°
2026-04-30 04:08 29.44183 71.61192 31678 ft 466 kts 237°
2026-04-30 04:08 29.39865 71.55629 31681 ft 466 kts 237°
2026-04-30 04:09 29.35552 71.50079 31685 ft 465 kts 237°
2026-04-30 04:09 29.31242 71.44538 31683 ft 465 kts 236°
2026-04-30 04:10 29.26941 71.39053 31685 ft 466 kts 236°
2026-04-30 04:10 29.22552 71.33558 31687 ft 466 kts 236°
2026-04-30 04:11 29.18179 71.28098 31682 ft 465 kts 236°
2026-04-30 04:11 29.13806 71.22633 31685 ft 465 kts 236°
2026-04-30 04:12 29.09469 71.17212 31685 ft 465 kts 236°
2026-04-30 04:12 29.05092 71.11746 31689 ft 465 kts 236°
2026-04-30 04:13 29.00721 71.06297 31686 ft 464 kts 236°
2026-04-30 04:13 28.96357 71.00864 31694 ft 464 kts 235°
2026-04-30 04:14 28.91994 70.95440 31695 ft 463 kts 235°
2026-04-30 04:14 28.87633 70.90024 31695 ft 463 kts 235°
2026-04-30 04:15 28.83273 70.84617 31694 ft 463 kts 235°
2026-04-30 04:15 28.78910 70.79214 31699 ft 463 kts 235°
2026-04-30 04:16 28.74550 70.73821 31702 ft 462 kts 235°
2026-04-30 04:16 28.70188 70.68434 31700 ft 462 kts 235°
2026-04-30 04:17 28.65853 70.63087 31699 ft 462 kts 235°
2026-04-30 04:17 28.61491 70.57713 31700 ft 462 kts 235°
2026-04-30 04:18 28.57110 70.52323 31702 ft 462 kts 235°
2026-04-30 04:18 28.52738 70.46951 31704 ft 462 kts 235°
2026-04-30 04:19 28.48387 70.41612 31700 ft 463 kts 234°
2026-04-30 04:19 28.44009 70.36245 31707 ft 463 kts 234°
2026-04-30 04:20 28.39627 70.30880 31707 ft 463 kts 234°
2026-04-30 04:20 28.35059 70.25675 31705 ft 471 kts 227°
2026-04-30 04:21 28.29924 70.21008 31701 ft 473 kts 226°
2026-04-30 04:21 28.24752 70.16387 31707 ft 473 kts 226°
2026-04-30 04:22 28.19625 70.11766 31706 ft 473 kts 226°
2026-04-30 04:22 28.14485 70.07107 31706 ft 473 kts 226°
2026-04-30 04:23 28.09338 70.02437 31705 ft 473 kts 226°
2026-04-30 04:23 28.04193 69.97777 31706 ft 474 kts 226°
2026-04-30 04:24 27.99045 69.93120 31711 ft 474 kts 226°
2026-04-30 04:24 27.93889 69.88463 31712 ft 474 kts 226°
2026-04-30 04:25 27.88740 69.83819 31710 ft 474 kts 226°
2026-04-30 04:25 27.83583 69.79173 31706 ft 474 kts 226°
2026-04-30 04:26 27.78417 69.74525 31716 ft 474 kts 226°
2026-04-30 04:26 27.73251 69.69882 31702 ft 474 kts 226°
2026-04-30 04:27 27.68129 69.65285 31710 ft 474 kts 226°
2026-04-30 04:27 27.62954 69.60646 31704 ft 474 kts 226°
2026-04-30 04:28 27.57786 69.56018 31705 ft 474 kts 226°
2026-04-30 04:28 27.52609 69.51388 31705 ft 475 kts 226°
2026-04-30 04:29 27.47435 69.46767 31706 ft 475 kts 226°
2026-04-30 04:29 27.42253 69.42145 31702 ft 475 kts 226°
2026-04-30 04:30 27.37106 69.37558 31708 ft 475 kts 226°
2026-04-30 04:30 27.31928 69.32950 31710 ft 475 kts 226°
2026-04-30 04:31 27.26753 69.28349 31707 ft 475 kts 226°
2026-04-30 04:31 27.21520 69.23796 31710 ft 475 kts 225°
2026-04-30 04:32 27.16252 69.19284 31712 ft 475 kts 225°
2026-04-30 04:32 27.10995 69.14780 31708 ft 475 kts 225°
2026-04-30 04:33 27.05741 69.10270 31704 ft 475 kts 225°
2026-04-30 04:33 27.00529 69.05796 31712 ft 475 kts 225°
2026-04-30 04:34 26.95284 69.01299 31709 ft 474 kts 225°
2026-04-30 04:34 26.90038 68.96808 31715 ft 474 kts 225°
2026-04-30 04:35 26.84791 68.92321 31709 ft 474 kts 224°
2026-04-30 04:35 26.79530 68.87828 31711 ft 474 kts 224°
2026-04-30 04:36 26.74293 68.83360 31711 ft 474 kts 224°
2026-04-30 04:36 26.69037 68.78881 31719 ft 474 kts 224°
2026-04-30 04:37 26.63784 68.74409 31711 ft 474 kts 224°
2026-04-30 04:37 26.58524 68.69933 31713 ft 474 kts 224°
2026-04-30 04:38 26.53276 68.65438 31362 ft 479 kts 224°
2026-04-30 04:38 26.50635 68.63175 30992 ft 478 kts 224°
2026-04-30 04:38 26.48007 68.60928 30565 ft 474 kts 224°
2026-04-30 04:38 26.45419 68.58717 30144 ft 474 kts 224°
2026-04-30 04:39 26.42795 68.56475 29663 ft 475 kts 224°
2026-04-30 04:39 26.40171 68.54234 29157 ft 475 kts 224°
2026-04-30 04:39 26.37545 68.51993 28613 ft 476 kts 224°
2026-04-30 04:39 26.34906 68.49742 28148 ft 480 kts 224°
2026-04-30 04:40 26.32239 68.47466 27663 ft 485 kts 224°
2026-04-30 04:40 26.29555 68.45180 27165 ft 486 kts 223°
2026-04-30 04:40 26.26864 68.42891 26684 ft 487 kts 223°
2026-04-30 04:40 26.24199 68.40625 26198 ft 488 kts 223°
2026-04-30 04:41 26.21498 68.38330 25702 ft 489 kts 223°
2026-04-30 04:41 26.18735 68.36078 25219 ft 491 kts 220°
2026-04-30 04:41 26.15926 68.33914 24717 ft 492 kts 219°
2026-04-30 04:41 26.13091 68.31787 24197 ft 489 kts 219°
2026-04-30 04:42 26.10289 68.29698 23722 ft 481 kts 219°
2026-04-30 04:42 26.07529 68.27633 23223 ft 476 kts 219°
2026-04-30 04:42 26.04796 68.25573 22671 ft 473 kts 219°
2026-04-30 04:42 26.02099 68.23528 22171 ft 468 kts 220°
2026-04-30 04:43 25.99440 68.21506 21696 ft 457 kts 220°
2026-04-30 04:43 25.96849 68.19534 21237 ft 446 kts 220°
2026-04-30 04:43 25.94309 68.17600 20791 ft 437 kts 220°
2026-04-30 04:43 25.91851 68.15726 20356 ft 428 kts 220°
2026-04-30 04:44 25.89410 68.13867 19938 ft 420 kts 220°
2026-04-30 04:44 25.87020 68.12046 19523 ft 413 kts 220°
2026-04-30 04:44 25.84669 68.10256 19101 ft 407 kts 220°
2026-04-30 04:44 25.82347 68.08489 18692 ft 401 kts 220°
2026-04-30 04:45 25.80055 68.06745 18275 ft 397 kts 220°
2026-04-30 04:45 25.77793 68.05025 17845 ft 392 kts 220°
2026-04-30 04:45 25.75560 68.03329 17414 ft 387 kts 220°
2026-04-30 04:45 25.73356 68.01655 17013 ft 381 kts 219°
2026-04-30 04:46 25.71211 68.00027 16634 ft 376 kts 219°
2026-04-30 04:46 25.69065 67.98400 16247 ft 371 kts 219°
2026-04-30 04:46 25.66947 67.96794 15878 ft 366 kts 219°
2026-04-30 04:46 25.64855 67.95208 15508 ft 362 kts 218°
2026-04-30 04:47 25.62784 67.93639 15149 ft 358 kts 218°
2026-04-30 04:47 25.60745 67.92095 14787 ft 354 kts 218°
2026-04-30 04:47 25.58721 67.90565 14387 ft 348 kts 217°
2026-04-30 04:47 25.56735 67.89087 14090 ft 342 kts 217°
2026-04-30 04:48 25.54779 67.87607 13747 ft 340 kts 217°
2026-04-30 04:48 25.52841 67.86135 13376 ft 337 kts 216°
2026-04-30 04:48 25.50910 67.84671 13014 ft 334 kts 216°
2026-04-30 04:48 25.49003 67.83226 12657 ft 331 kts 216°
2026-04-30 04:49 25.47103 67.81788 12315 ft 328 kts 216°
2026-04-30 04:49 25.45228 67.80373 11971 ft 325 kts 216°
2026-04-30 04:49 25.43372 67.78971 11648 ft 322 kts 216°
2026-04-30 04:49 25.41531 67.77583 11321 ft 319 kts 216°
2026-04-30 04:50 25.39720 67.76218 10998 ft 316 kts 216°
2026-04-30 04:50 25.37908 67.74853 10679 ft 314 kts 216°
2026-04-30 04:50 25.36105 67.73495 10361 ft 312 kts 216°
2026-04-30 04:50 25.34314 67.72146 10050 ft 310 kts 216°
2026-04-30 04:51 25.32543 67.70813 9845 ft 304 kts 216°
2026-04-30 04:51 25.31391 67.69946 9704 ft 301 kts 216°
2026-04-30 04:51 25.29695 67.68673 9693 ft 288 kts 216°
2026-04-30 04:51 25.28039 67.67428 9174 ft 294 kts 216°
2026-04-30 04:52 25.26351 67.66159 8806 ft 295 kts 216°
2026-04-30 04:52 25.24658 67.64886 8481 ft 294 kts 216°
2026-04-30 04:52 25.22973 67.63620 8164 ft 292 kts 216°
2026-04-30 04:52 25.21295 67.62360 7869 ft 291 kts 217°
2026-04-30 04:53 25.19647 67.61124 7561 ft 289 kts 217°
2026-04-30 04:53 25.17979 67.59872 7264 ft 287 kts 216°
2026-04-30 04:53 25.16331 67.58637 6972 ft 286 kts 217°
2026-04-30 04:53 25.14688 67.57405 6671 ft 285 kts 217°
2026-04-30 04:54 25.13050 67.56176 6387 ft 285 kts 217°
2026-04-30 04:54 25.11413 67.54949 6079 ft 285 kts 217°
2026-04-30 04:54 25.09770 67.53717 5769 ft 284 kts 217°
2026-04-30 04:54 25.08134 67.52492 5471 ft 284 kts 217°
2026-04-30 04:55 25.06521 67.51286 5347 ft 276 kts 217°
2026-04-30 04:55 25.04936 67.50099 5090 ft 275 kts 217°
2026-04-30 04:55 25.03379 67.48934 4852 ft 273 kts 217°
2026-04-30 04:55 25.01807 67.47758 4583 ft 272 kts 217°
2026-04-30 04:56 25.00251 67.46595 4333 ft 270 kts 218°
2026-04-30 04:56 24.98764 67.45380 4172 ft 261 kts 232°
2026-04-30 04:56 24.97918 67.43715 4113 ft 240 kts 251°
2026-04-30 04:56 24.97377 67.42019 3984 ft 227 kts 255°
2026-04-30 04:57 24.96948 67.40409 3923 ft 211 kts 257°
2026-04-30 04:57 24.96555 67.38853 3721 ft 216 kts 257°
2026-04-30 04:57 24.96152 67.37248 3454 ft 216 kts 257°
2026-04-30 04:57 24.95754 67.35677 3201 ft 210 kts 257°
2026-04-30 04:58 24.95366 67.34142 2936 ft 205 kts 257°
2026-04-30 04:58 24.94989 67.32651 2685 ft 199 kts 255°
2026-04-30 04:58 24.94620 67.31193 2433 ft 194 kts 256°
2026-04-30 04:58 24.94264 67.29784 2203 ft 187 kts 256°
2026-04-30 04:59 24.93926 67.28446 1965 ft 174 kts 255°
2026-04-30 04:59 24.93616 67.27220 1782 ft 157 kts 255°
2026-04-30 04:59 24.93339 67.26121 1590 ft 146 kts 255°
2026-04-30 04:59 24.93060 67.25014 1369 ft 149 kts 255°
2026-04-30 05:00 24.92784 67.23923 1200 ft 149 kts 256°
2026-04-30 05:00 24.92511 67.22832 1040 ft 148 kts 255°
2026-04-30 05:00 24.92232 67.21730 819 ft 146 kts 254°
2026-04-30 05:00 24.91955 67.20638 645 ft 152 kts 256°
2026-04-30 05:01 24.91675 67.19522 464 ft 148 kts 257°
2026-04-30 05:01 24.91405 67.18453 293 ft 141 kts 254°
2026-04-30 05:01 24.91145 67.17417 109 ft 137 kts 254°
2026-04-30 05:01 24.90931 67.16571 103 ft 84 kts 255°
2026-04-30 05:02 24.90803 67.16062 102 ft 62 kts 255°
2026-04-30 05:02 24.90700 67.15773 104 ft 27 kts 225°
2026-04-30 05:02 24.90530 67.15717 103 ft 26 kts 169°
2026-04-30 05:02 24.90362 67.15765 103 ft 24 kts 165°
2026-04-30 05:03 24.90259 67.15802 101 ft 11 kts 144°
2026-04-30 05:03 24.90192 67.15846 100 ft 12 kts 165°
2026-04-30 05:03 24.90138 67.15862 100 ft 0 kts 164°